Buffalo, NY

6:27 AM EST on December 13, 2019 (GMT -0500)
Buffalo Niagara International

Weather History for KBUF - October, 2019

Change the Weather History Date:

Monday, October 7, 2019

  Actual Average Record
Temperature  
Mean Temperature 54 °F 54 °F  
Max Temperature 61 °F 62 °F 82 °F (1955)
Min Temperature 47 °F 46 °F 28 °F (1964)
Degree Days  
Heating Degree Days 11 11  
Month to date heating degree days 66 72  
Since 1 July heating degree days 111 234  
Cooling Degree Days 0 0  
Month to date cooling degree days 7 0  
Year to date cooling degree days 604 540  
Growing Degree Days 7 (Base 50)    
Moisture  
Dew Point 51 °F    
Average Humidity 82    
Maximum Humidity 100    
Minimum Humidity 64    
Precipitation  
Precipitation 0.23 in 0.12 in 1.45 in (1907)
Month to date precipitation 1.32 0.86  
Year to date precipitation 35.97 29.92  
Snow  
Snow 0.00 in 0.00 in T in (2001)
Month to date snowfall 0.0 0.1  
Since 1 July snowfall 0.0 0.1  
Since 1 September snowfall 0.0 0.1  
Snow Depth 0.00 in    
Sea Level Pressure  
Sea Level Pressure 30.12 in    
Wind  
Wind Speed 9 mph (SW)    
Max Wind Speed 18 mph    
Max Gust Speed 25 mph    
Visibility 10 miles    
Events Rain    
T = Trace of Precipitation, MM = Missing Value Source: NWS Daily Summary

Daily Weather History Graph

Daily Weather History Graph

Search for Another Location

Airport or City:

Astronomy

Oct. 07, 2019 Rise Set
Actual Time 7:18 AM EDT 6:46 PM EDT
Civil Twilight 6:50 AM EDT 7:14 PM EDT
Nautical Twilight 6:17 AM EDT 7:47 PM EDT
Astronomical Twilight 5:44 AM EDT 8:20 PM EDT
Moon 4:16 PM EDT (10/7) 12:59 AM EDT (10/7)
Length of Visible Light 12h 23m
Length of Day
11h 27m
Waxing Gibbous, 69% of the Moon is Illuminated
Oct 7
Waxing Gibbous
Oct 13
Full
Oct 21
Last Quarter
Oct 27
New
Nov 4
First Quarter

Hourly Weather History & Observations

Time (EDT) Temp. Dew Point Humidity Pressure Visibility Wind Dir Wind Speed Gust Speed Precip Events Conditions
12:54 AM 59.0 °F 52.0 °F 78% 30.09 in 10.0 mi West 4.6 mph - 0.00 in Rain Light Rain
1:54 AM 55.0 °F 52.0 °F 89% 30.10 in 8.0 mi NW 4.6 mph - 0.05 in Rain Rain
2:54 AM 55.0 °F 53.1 °F 93% 30.08 in 9.0 mi SE 3.5 mph - 0.08 in Rain Light Rain
3:25 AM 54.0 °F 54.0 °F 100% 30.08 in 8.0 mi South 3.5 mph - 0.03 in Rain Light Rain
3:33 AM 54.0 °F 53.1 °F 97% 30.07 in 7.0 mi South 4.6 mph - 0.04 in Rain Light Rain
3:54 AM 54.0 °F 53.1 °F 97% 30.08 in 10.0 mi South 6.9 mph - 0.06 in Rain Light Rain
4:54 AM 53.1 °F 53.1 °F 100% 30.08 in 10.0 mi South 6.9 mph - 0.03 in Rain Light Rain
5:54 AM 53.1 °F 52.0 °F 96% 30.10 in 10.0 mi SSW 8.1 mph - 0.00 in   Overcast
6:54 AM 53.1 °F 52.0 °F 96% 30.11 in 10.0 mi South 8.1 mph - 0.01 in   Overcast
7:54 AM 53.1 °F 53.1 °F 100% 30.11 in 10.0 mi SSW 8.1 mph - 0.00 in Rain Light Rain
8:54 AM 55.0 °F 53.1 °F 93% 30.11 in 10.0 mi SSW 9.2 mph - 0.00 in   Overcast
9:54 AM 57.0 °F 54.0 °F 89% 30.11 in 10.0 mi SSW 10.4 mph - N/A   Overcast
9:58 AM 57.0 °F 54.0 °F 89% 30.11 in 10.0 mi SSW 11.5 mph - N/A   Overcast
10:54 AM 57.9 °F 54.0 °F 87% 30.11 in 10.0 mi SW 11.5 mph - N/A   Overcast
11:54 AM 59.0 °F 54.0 °F 83% 30.11 in 10.0 mi SW 12.7 mph - N/A   Overcast
12:54 PM 60.1 °F 54.0 °F 80% 30.10 in 10.0 mi SW 13.8 mph - N/A   Overcast
1:54 PM 61.0 °F 53.1 °F 75% 30.10 in 10.0 mi WSW 16.1 mph 23.0 mph N/A   Mostly Cloudy
2:54 PM 61.0 °F 53.1 °F 75% 30.11 in 10.0 mi WSW 18.4 mph 21.9 mph N/A   Mostly Cloudy
3:54 PM 61.0 °F 53.1 °F 75% 30.10 in 10.0 mi WSW 15.0 mph 25.3 mph N/A   Mostly Cloudy
4:54 PM 60.1 °F 48.0 °F 64% 30.10 in 10.0 mi WSW 11.5 mph - N/A   Mostly Cloudy
5:54 PM 59.0 °F 48.9 °F 69% 30.12 in 10.0 mi WSW 8.1 mph - N/A   Mostly Cloudy
6:54 PM 57.9 °F 48.9 °F 72% 30.14 in 10.0 mi WSW 8.1 mph - N/A   Mostly Cloudy
7:54 PM 57.0 °F 46.9 °F 69% 30.16 in 10.0 mi West 8.1 mph - N/A   Mostly Cloudy
8:54 PM 55.0 °F 46.9 °F 74% 30.17 in 10.0 mi WSW 4.6 mph - N/A   Mostly Cloudy
9:54 PM 55.0 °F 46.9 °F 74% 30.20 in 10.0 mi WSW 6.9 mph - N/A   Mostly Cloudy
10:54 PM 53.1 °F 46.0 °F 77% 30.22 in 10.0 mi West 5.8 mph - N/A   Mostly Cloudy
11:54 PM 51.1 °F 46.9 °F 86% 30.23 in 10.0 mi Calm Calm - N/A   Scattered Clouds